Matheus Fonseca

Recruteur - Fluminense
6 Janv 2028
Jeudi
Processus

Personnalité

Adaptabilité (19) Ambition (12) Controverse (11) Loyauté (16) Pression (11) Professionnalisme (5) Sportivité (6) Tempérament (9)

Profil

Style d'entraînement Démocratique
Diplôme Continental A
Détermination 5
Gestion des joueurs 15
Motivation 15
Discipline 5
Satisfaction professionnelle
100%
Fatigue
0%
Rôle Recruteur
Salaire 55.4K p/s
Contrat 14.03.2030

Performance

Comportement Bon
Efficacité de l'entraînement
49%
Développement des joueurs
35%
Prévention des blessures
25%
Mise en place tactique
45%

Événements récents

A participé à une réunion de recrutement 7j
A participé à une réunion de recrutement 7j
A participé à une réunion de recrutement 14j
A participé à une réunion de recrutement 14j
A participé à une réunion de recrutement 21j
A participé à une réunion de recrutement 21j
A participé à une réunion de recrutement 28j
A participé à une réunion de recrutement 28j

Suivi en cours

57
Joueur Club Statut Capacité Confiance Observé Dernière observation Dernier vote
Andrés Gómez Vasco da Gama Actif 135 / 146 40% 1 30.11.2027 -
Álvaro Barreal Santos Actif 137 / 137 40% 1 30.11.2027 Plus d'infos
Jack Rudoni Coventry City Actif 149 / 127 40% 1 31.05.2027 -
Mikkel Damsgaard Brentford Actif 151 / 147 40% 1 31.05.2027 -
Marco Asensio Fenerbahce Actif 163 / 170 40% 1 30.11.2026 -
Nuno Santos Sporting CP Actif 139 / 134 40% 1 30.11.2026 -
Pablo Rosario Porto Actif 147 / 127 40% 2 29.11.2026 -
Bertrand Traoré Sunderland Actif 140 / 123 40% 1 29.11.2026 -
Gérson Cruzeiro Actif 143 / 146 40% 2 28.11.2026 -
Dodi Lukébakio Benfica Actif 136 / 133 40% 3 28.11.2026 -
Víctor Gómez Braga Actif 126 / 125 40% 3 27.11.2026 -
Tyrell Malacia Monaco Actif 123 / 146 40% 1 27.11.2026 -
Gonçalo Inácio Sporting CP Actif 134 / 143 40% 2 26.11.2026 -
Anel Ahmedhodžić Burnley Actif 124 / 122 40% 1 26.11.2026 -
Jesús Ricardo Angulo Toluca Actif 127 / 134 40% 1 25.11.2026 -
Alberto Costa Porto Actif 151 / 144 40% 2 17.11.2026 -
Danilo Botafogo Actif 126 / 137 40% 1 17.11.2026 -
Fredrik Aursnes Benfica Actif 153 / 149 40% 2 15.11.2026 -
William Gomes Porto Actif 155 / 148 40% 2 14.11.2026 -
Iván Fresneda Sporting CP Actif 153 / 153 40% 3 14.11.2026 -
Leandro Barreiro Benfica Actif 154 / 149 40% 2 12.11.2026 -
Gustaf Lagerbielke Braga Actif 144 / 140 40% 1 12.11.2026 -
Sikou Niakaté Braga Actif 153 / 127 40% 1 10.11.2026 -
Lucas Veríssimo Santos Actif 143 / 141 40% 1 10.11.2026 -
Geny Sporting CP Actif 144 / 133 40% 3 03.11.2026 -
William Cruzeiro Actif 129 / 138 40% 2 01.11.2026 -
Matty Cash Aston Villa Actif 142 / 157 40% 1 31.10.2026 -
Erick Sánchez OGC Nice Actif 133 / 147 40% 1 24.10.2026 -
Léo Scienza Southampton Actif 136 / 125 40% 1 20.10.2026 -
Eduardo Quaresma Sporting CP Actif 142 / 144 40% 2 19.10.2026 -
Thorgan Witsel KV Oostende Actif 123 / 124 40% 1 19.10.2026 -
Mauro Arambarri River Plate Actif 150 / 156 40% 5 18.10.2026 -
Hwang In-Beom Porto Actif 146 / 141 40% 2 16.10.2026 -
Matheus Pereira Cruzeiro Actif 144 / 151 40% 1 16.10.2026 -
Orbelín Pineda Monterrey Actif 142 / 133 40% 1 15.10.2026 -
Victor Froholdt Porto Actif 159 / 155 40% 3 10.10.2026 -
Heorhii Sudakov Benfica Actif 148 / 153 40% 2 08.10.2026 -
Takumi Minamino Monaco Actif 150 / 150 40% 1 08.10.2026 -
Jan Bednarek Porto Actif 162 / 132 40% 1 04.10.2026 -
Francisco Moura Lusitânia Lourosa Actif 139 / 145 40% 2 03.10.2026 -
Andreas Pereira Palmeiras Actif 139 / 135 40% 1 29.09.2026 -
John McGinn Aston Villa Actif 139 / 134 40% 1 27.09.2026 -
Raheem Sterling Feyenoord Actif 140 / 128 40% 1 27.09.2026 -
Paulo Henrique Vasco da Gama Actif 137 / 126 40% 1 26.09.2026 -
Ainsley Maitland-Niles Everton Actif 126 / 128 40% 1 26.09.2026 -
Carlos Rodríguez Cruz Azul Actif 127 / 129 40% 1 25.09.2026 -
Agustín Palavecino Cruz Azul Actif 126 / 140 40% 1 21.09.2026 -
Pau Víctor AVS Actif 137 / 141 40% 1 19.09.2026 -
Jonathan Bamba Chicago Fire Actif 124 / 138 40% 1 17.09.2026 -
Ousmane Diomande Nottingham Forest Actif 159 / 157 40% 1 11.09.2026 -
Florentino Luís Ipswich Town Actif 149 / 149 40% 1 10.09.2026 -
Jesús Angulo Tigres Actif 127 / 131 40% 1 31.08.2026 -
Ricardo Horta Braga Actif 134 / 143 40% 1 28.08.2026 -
Alan Varela Porto Actif 129 / 137 40% 1 28.08.2026 -
Luis Sinisterra Cruzeiro Actif 148 / 133 40% 1 23.08.2026 -
Kenny Tete Fulham Actif 131 / 147 40% 1 08.08.2026 -
Alex Scott Bournemouth Actif 133 / 153 40% 1 02.08.2026 -